STARLINK-2063, 48553

Orbit data source: Space-Track

STARLINK-2063, 48553 is a payload satellite owned by SpaceX/Seattle (US) in LEO that was launched on Sat, 15 May 2021 UTC via an FALCON 9 launch vehicle from the Air Force Eastern Test Range (AFETR). Payload-class satellites include a variety of spacecraft equipped with specific instruments for various scientific and technological missions. These include communications satellites like Starlink; space stations such as the ISS; scientific satellites like the Hubble; Earth observation satellites from companies like Planet Labs, Umbra, and HawkEye 360; GPS; miniature CubeSats for education and research; and military/defense satellites.

Loading next visibility...
Identifier
48553, 2021-041A
Orbit
LEO
Country
Flag of USUS
Related business
Manufacturer
SpaceX/Seattle
Mission
Operational Commercial Communications
Bus & Motor
STARLINK, Unknown motor
Mass
260 kg wet, ~248 kg dry
Launch date (UTC)
2021-05-15 (5 years ago)
Launch vehicle
FALCON 9
Launch site
Air Force Eastern Test Range (AFETR)
Object type
Payload
Rocket body
Debris
Shape & HBR
Box + 1 Pan, 10.1 m
Radar Cross Section
13.562 m², Large (>1 m²)

Expand to show TLE details & history
Last TLE update: 21 hours ago

TLE from 21 hours ago
0 STARLINK-2063
1 48553U 21041A   25348.75464969 -.00000242  00000-0  26343-5 0  9997
2 48553  53.0547 152.9085 0001322  87.1126 273.0015 15.06390486252407
Epoch: 2025-12-14T18:06Z
TLE epoch observation values (Epoch: 2025-12-14T18:06:41.733Z)
Latitude
0.00005°
Longitude
157.57163°
Altitude
548.072 km
Speed
7.589 km/s
True Right ascension
10h 11m 38s
True Declination
0° 00' 00"
Sunlit
Object was in daylight at epoch
Visualization orbit readout
Latitude
Unknown
Longitude
Unknown
Altitude
Unknown
Speed
Unknown
Apparent Right ascension
Unknown
Apparent Declination
Unknown
Sunlit
N/A
Visualization observer readout
Local Sidereal Time
13:24:48
Azimuth
Unknown
Elevation
Unknown
Doppler factor
Unknown
Orbital elements
Apogee altitude
548.427 km
Perigee altitude
546.596 km
Semi-major axis
6,925.648 km
Eccentricity
0.00013
Inclination
53.0547°
RAAN
152.9085°
Arg. of periapsis
87.1126°
True anomaly
272.98637°
Mean anomaly
273.0015°
Eccentric anomaly
272.99394°
Mean motion
3.76576 °/min
Orbital period
95.6 mins
BSTAR
0.0000026343
Loading maneuver chart data...
Computing Atmospheric mass density...
Loading historical data...
Loading historical data...
Loading historical data...
Loading historical data...
Loading historical data...
Loading historical data...
Loading historical data...

Documentation

Showing up to 5 results
|